Location: Arroyo de Valdeoliva
(40.1604°N, 4.9878°W)
Time: 04:16:20
(UTC+00:00)

Cosmos 783 Rocket - Pass Details

Date: 11 December 2025
Orbit: 753 x 776 km, 74.1° (Epoch: 13 January)

Event Time Altitude Azimuth Distance (km) Brightness Sun altitude
Rises 17:43:59 0° 343° (NNW) 3,264 7.7 -9.4°
Reaches altitude 10° 17:46:24 10° 346° (NNW) 2,333 6.9 -9.8°
Maximum altitude 17:51:42 70° 70° (ENE) 825 4.5 -10.7°
Drops below altitude 10° 17:56:56 10° 154° (SSE) 2,312 6.9 -11.7°
Sets 17:59:18 0° 156° (SSE) 3,232 7.7 -12.1°
